CSN3733 ZUUU-ZGNN

Flight info

Callsign CSN3733
Flight time 1h 30m
Altitude 37100
Route IDBOR9Z IDBOR B330 KWE W181 XOLON APUPA UVUNO R339 UVUNO UVU18A
Aircraft A20N/M-SDE2E3FGHIRWXY/LB1

Departure

Time 2026-05-05 08:06
Airport Chengdu Shuangliu International Airport (ZUUU)

Arrival

Time 2026-05-05 09:36
Airport Nanning Wuxu International Airport (ZGNN)
Time Latitude Longitude Altitude Speed Heading
2026-05-05 07:29 30.58038 103.95315 1634 ft 0 kts 201°
2026-05-05 07:48 30.58040 103.95316 1633 ft 2 kts 200°
2026-05-05 07:49 30.58051 103.95322 1634 ft 2 kts 210°
2026-05-05 07:49 30.58061 103.95329 1634 ft 2 kts 219°
2026-05-05 07:49 30.58070 103.95338 1634 ft 2 kts 228°
2026-05-05 07:49 30.58078 103.95349 1634 ft 2 kts 238°
2026-05-05 07:50 30.58084 103.95361 1634 ft 2 kts 251°
2026-05-05 07:50 30.58087 103.95375 1634 ft 2 kts 265°
2026-05-05 07:50 30.58087 103.95389 1634 ft 2 kts 279°
2026-05-05 07:50 30.58087 103.95392 1634 ft 0 kts 282°
2026-05-05 07:54 30.58088 103.95387 1634 ft 2 kts 282°
2026-05-05 07:54 30.58094 103.95362 1634 ft 5 kts 291°
2026-05-05 07:54 30.58118 103.95328 1635 ft 6 kts 314°
2026-05-05 07:54 30.58140 103.95277 1635 ft 8 kts 292°
2026-05-05 07:55 30.58159 103.95226 1635 ft 1 kts 293°
2026-05-05 07:56 30.58164 103.95212 1635 ft 3 kts 293°
2026-05-05 07:56 30.58177 103.95180 1635 ft 6 kts 295°
2026-05-05 07:56 30.58197 103.95128 1635 ft 8 kts 292°
2026-05-05 07:56 30.58237 103.95091 1635 ft 8 kts
2026-05-05 07:57 30.58268 103.95102 1636 ft 1 kts 23°
2026-05-05 07:58 30.58269 103.95102 1636 ft 0 kts 23°
2026-05-05 07:58 30.58277 103.95106 1636 ft 2 kts 23°
2026-05-05 07:58 30.58294 103.95116 1636 ft 4 kts 28°
2026-05-05 07:59 30.58321 103.95132 1637 ft 5 kts 27°
2026-05-05 07:59 30.58357 103.95150 1637 ft 6 kts 22°
2026-05-05 07:59 30.58400 103.95171 1638 ft 7 kts 22°
2026-05-05 07:59 30.58451 103.95194 1639 ft 8 kts 20°
2026-05-05 08:00 30.58507 103.95218 1640 ft 9 kts 21°
2026-05-05 08:00 30.58567 103.95246 1641 ft 10 kts 23°
2026-05-05 08:00 30.58633 103.95278 1642 ft 10 kts 21°
2026-05-05 08:00 30.58703 103.95310 1644 ft 11 kts 21°
2026-05-05 08:01 30.58776 103.95346 1645 ft 12 kts 22°
2026-05-05 08:01 30.58854 103.95382 1646 ft 12 kts 22°
2026-05-05 08:01 30.58924 103.95413 1648 ft 10 kts 21°
2026-05-05 08:01 30.58991 103.95443 1649 ft 11 kts 21°
2026-05-05 08:02 30.59058 103.95474 1650 ft 10 kts 24°
2026-05-05 08:02 30.59127 103.95510 1651 ft 11 kts 23°
2026-05-05 08:02 30.59197 103.95543 1652 ft 11 kts 21°
2026-05-05 08:02 30.59264 103.95570 1652 ft 10 kts
2026-05-05 08:03 30.59301 103.95533 1652 ft 8 kts 290°
2026-05-05 08:03 30.59304 103.95521 1652 ft 0 kts 288°
2026-05-05 08:04 30.59307 103.95511 1652 ft 3 kts 288°
2026-05-05 08:04 30.59314 103.95490 1652 ft 5 kts 290°
2026-05-05 08:04 30.59329 103.95441 1652 ft 8 kts 289°
2026-05-05 08:04 30.59327 103.95390 1653 ft 7 kts 232°
2026-05-05 08:05 30.59279 103.95363 1652 ft 9 kts 196°
2026-05-05 08:05 30.59193 103.95325 1651 ft 24 kts 202°
2026-05-05 08:05 30.58803 103.95144 1646 ft 96 kts 203°
2026-05-05 08:05 30.57992 103.94766 1632 ft 153 kts 201°
2026-05-05 08:06 30.56879 103.94241 1713 ft 189 kts 202°
2026-05-05 08:06 30.55682 103.93677 2442 ft 182 kts 200°
2026-05-05 08:06 30.54505 103.93169 2823 ft 173 kts 197°
2026-05-05 08:06 30.53382 103.92736 2725 ft 174 kts 197°
2026-05-05 08:07 30.52223 103.92220 2731 ft 185 kts 201°
2026-05-05 08:07 30.50963 103.91613 2811 ft 209 kts 201°
2026-05-05 08:07 30.49543 103.90970 3165 ft 229 kts 198°
2026-05-05 08:07 30.47985 103.90276 3650 ft 252 kts 201°
2026-05-05 08:08 30.46325 103.89459 4353 ft 264 kts 201°
2026-05-05 08:08 30.44603 103.88622 5217 ft 271 kts 201°
2026-05-05 08:08 30.42860 103.87787 6175 ft 270 kts 201°
2026-05-05 08:08 30.41109 103.86961 7037 ft 274 kts 200°
2026-05-05 08:09 30.39319 103.86171 7885 ft 276 kts 200°
2026-05-05 08:09 30.37531 103.85338 8767 ft 279 kts 203°
2026-05-05 08:09 30.35737 103.84445 9549 ft 284 kts 204°
2026-05-05 08:09 30.33916 103.83542 10294 ft 289 kts 204°
2026-05-05 08:10 30.31995 103.82607 10587 ft 311 kts 203°
2026-05-05 08:10 30.29925 103.81621 10818 ft 332 kts 203°
2026-05-05 08:10 30.27759 103.80602 11389 ft 338 kts 202°
2026-05-05 08:10 30.25502 103.79830 12143 ft 342 kts 188°
2026-05-05 08:11 30.23118 103.79952 12844 ft 348 kts 168°
2026-05-05 08:11 30.20870 103.81047 13488 ft 356 kts 148°
2026-05-05 08:11 30.19015 103.82963 14094 ft 362 kts 135°
2026-05-05 08:11 30.17272 103.85096 14653 ft 367 kts 135°
2026-05-05 08:12 30.15518 103.87266 15226 ft 371 kts 135°
2026-05-05 08:12 30.13738 103.89456 15781 ft 376 kts 135°
2026-05-05 08:12 30.11937 103.91657 16320 ft 381 kts 135°
2026-05-05 08:12 30.10101 103.93889 16861 ft 386 kts 135°
2026-05-05 08:13 30.08239 103.96147 17407 ft 390 kts 135°
2026-05-05 08:13 30.06356 103.98428 17949 ft 394 kts 135°
2026-05-05 08:13 30.04478 104.00701 18409 ft 399 kts 135°
2026-05-05 08:13 30.02556 104.03026 18906 ft 402 kts 135°
2026-05-05 08:14 30.00619 104.05367 19364 ft 406 kts 135°
2026-05-05 08:14 29.98661 104.07734 19856 ft 409 kts 135°
2026-05-05 08:14 29.96687 104.10117 20310 ft 413 kts 135°
2026-05-05 08:14 29.94694 104.12523 20762 ft 417 kts 135°
2026-05-05 08:15 29.92684 104.14945 21234 ft 420 kts 135°
2026-05-05 08:15 29.90656 104.17389 21689 ft 423 kts 135°
2026-05-05 08:15 29.88614 104.19849 22158 ft 427 kts 135°
2026-05-05 08:15 29.86554 104.22328 22608 ft 430 kts 135°
2026-05-05 08:16 29.84472 104.24832 23033 ft 434 kts 135°
2026-05-05 08:16 29.82374 104.27354 23466 ft 437 kts 135°
2026-05-05 08:16 29.80262 104.29890 23846 ft 440 kts 135°
2026-05-05 08:16 29.78132 104.32446 24219 ft 444 kts 135°
2026-05-05 08:17 29.75987 104.35019 24597 ft 447 kts 135°
2026-05-05 08:17 29.73829 104.37605 24966 ft 450 kts 135°
2026-05-05 08:17 29.71655 104.40208 25314 ft 453 kts 135°
2026-05-05 08:17 29.69467 104.42828 25669 ft 456 kts 135°
2026-05-05 08:18 29.67264 104.45464 26012 ft 459 kts 135°
2026-05-05 08:18 29.65048 104.48113 26357 ft 461 kts 135°
2026-05-05 08:18 29.62816 104.50780 26699 ft 464 kts 135°
2026-05-05 08:18 29.60572 104.53458 27027 ft 467 kts 135°
2026-05-05 08:19 29.58311 104.56156 27332 ft 470 kts 135°
2026-05-05 08:19 29.56039 104.58864 27618 ft 473 kts 135°
2026-05-05 08:19 29.53749 104.61593 27932 ft 475 kts 135°
2026-05-05 08:19 29.52147 104.63501 28146 ft 477 kts 135°
2026-05-05 08:20 29.49836 104.66251 28435 ft 480 kts 134°
2026-05-05 08:20 29.47513 104.69014 28727 ft 482 kts 134°
2026-05-05 08:20 29.45175 104.71792 29002 ft 485 kts 134°
2026-05-05 08:20 29.42824 104.74584 29285 ft 488 kts 134°
2026-05-05 08:21 29.40465 104.77385 29575 ft 490 kts 134°
2026-05-05 08:21 29.38087 104.80205 29845 ft 493 kts 134°
2026-05-05 08:21 29.35649 104.82982 30070 ft 495 kts 139°
2026-05-05 08:21 29.32941 104.85423 30296 ft 497 kts 147°
2026-05-05 08:22 29.29969 104.87455 30527 ft 498 kts 155°
2026-05-05 08:22 29.26811 104.89096 30757 ft 500 kts 158°
2026-05-05 08:22 29.23617 104.90694 30979 ft 502 kts 158°
2026-05-05 08:22 29.20458 104.92283 31301 ft 503 kts 158°
2026-05-05 08:23 29.17254 104.93899 31605 ft 504 kts 158°
2026-05-05 08:23 29.14044 104.95517 31902 ft 505 kts 158°
2026-05-05 08:23 29.10830 104.97137 32218 ft 505 kts 158°
2026-05-05 08:23 29.07617 104.98761 32521 ft 505 kts 158°
2026-05-05 08:24 29.04358 105.00408 32820 ft 506 kts 158°
2026-05-05 08:24 29.01141 105.02033 33097 ft 506 kts 158°
2026-05-05 08:24 28.97920 105.03657 33391 ft 506 kts 158°
2026-05-05 08:24 28.94735 105.05263 33611 ft 507 kts 159°
2026-05-05 08:25 28.91503 105.06886 33855 ft 507 kts 159°
2026-05-05 08:25 28.88268 105.08505 34106 ft 507 kts 159°
2026-05-05 08:25 28.85037 105.10119 34341 ft 507 kts 159°
2026-05-05 08:25 28.81803 105.11734 34571 ft 507 kts 159°
2026-05-05 08:26 28.78573 105.13348 34792 ft 507 kts 159°
2026-05-05 08:26 28.75415 105.15163 35012 ft 509 kts 154°
2026-05-05 08:26 28.72291 105.17065 35199 ft 509 kts 155°
2026-05-05 08:26 28.69161 105.18966 35406 ft 510 kts 155°
2026-05-05 08:27 28.66034 105.20863 35583 ft 510 kts 155°
2026-05-05 08:27 28.62903 105.22759 35802 ft 510 kts 155°
2026-05-05 08:27 28.59770 105.24654 35999 ft 510 kts 155°
2026-05-05 08:27 28.56640 105.26546 36200 ft 510 kts 155°
2026-05-05 08:28 28.53508 105.28438 36393 ft 510 kts 155°
2026-05-05 08:28 28.50375 105.30328 36587 ft 510 kts 155°
2026-05-05 08:28 28.47243 105.32217 36761 ft 510 kts 155°
2026-05-05 08:28 28.44107 105.34106 36963 ft 510 kts 156°
2026-05-05 08:29 28.40970 105.35995 37106 ft 511 kts 156°
2026-05-05 08:29 28.37832 105.37883 37261 ft 511 kts 156°
2026-05-05 08:29 28.34691 105.39773 37404 ft 511 kts 156°
2026-05-05 08:30 28.28409 105.43548 37713 ft 511 kts 156°
2026-05-05 08:30 28.22127 105.47317 37807 ft 510 kts 156°
2026-05-05 08:31 28.15868 105.51071 37827 ft 509 kts 156°
2026-05-05 08:31 28.09587 105.54781 37834 ft 508 kts 160°
2026-05-05 08:32 28.03008 105.57494 37835 ft 498 kts 171°
2026-05-05 08:32 27.96248 105.58855 37845 ft 492 kts 179°
2026-05-05 08:33 27.89476 105.59903 37843 ft 491 kts 178°
2026-05-05 08:33 27.82713 105.61181 37848 ft 496 kts 172°
2026-05-05 08:34 27.76150 105.63747 37826 ft 503 kts 160°
2026-05-05 08:34 27.69923 105.67461 37885 ft 510 kts 156°
2026-05-05 08:35 27.63632 105.71139 37911 ft 508 kts 159°
2026-05-05 08:35 27.57236 105.74524 37901 ft 507 kts 159°
2026-05-05 08:36 27.50854 105.77928 37916 ft 507 kts 159°
2026-05-05 08:36 27.44516 105.81322 37924 ft 508 kts 159°
2026-05-05 08:37 27.38136 105.84762 37937 ft 508 kts 159°
2026-05-05 08:37 27.31772 105.88190 37932 ft 507 kts 159°
2026-05-05 08:38 27.25396 105.91615 37938 ft 508 kts 159°
2026-05-05 08:38 27.19025 105.95035 37941 ft 507 kts 159°
2026-05-05 08:39 27.12659 105.98448 37946 ft 506 kts 159°
2026-05-05 08:39 27.06439 106.02196 37941 ft 511 kts 148°
2026-05-05 08:40 27.01136 106.07547 37949 ft 517 kts 131°
2026-05-05 08:40 26.96778 106.13967 37945 ft 518 kts 128°
2026-05-05 08:41 26.92445 106.20410 37949 ft 518 kts 128°
2026-05-05 08:41 26.88100 106.26846 37958 ft 518 kts 128°
2026-05-05 08:42 26.83756 106.33274 37962 ft 518 kts 128°
2026-05-05 08:42 26.79404 106.39704 37985 ft 519 kts 128°
2026-05-05 08:43 26.75038 106.46146 37989 ft 520 kts 128°
2026-05-05 08:43 26.70661 106.52594 38025 ft 521 kts 128°
2026-05-05 08:44 26.66272 106.59050 38038 ft 522 kts 128°
2026-05-05 08:44 26.61871 106.65515 38049 ft 523 kts 128°
2026-05-05 08:45 26.57465 106.71978 38043 ft 522 kts 128°
2026-05-05 08:45 26.53048 106.78402 38032 ft 521 kts 131°
2026-05-05 08:46 26.48039 106.84231 38033 ft 520 kts 137°
2026-05-05 08:46 26.42888 106.89882 38049 ft 519 kts 137°
2026-05-05 08:47 26.37742 106.95532 38057 ft 520 kts 137°
2026-05-05 08:47 26.32590 107.01182 38065 ft 519 kts 137°
2026-05-05 08:48 26.27434 107.06830 38065 ft 520 kts 137°
2026-05-05 08:48 26.22326 107.12446 38061 ft 519 kts 137°
2026-05-05 08:49 26.17180 107.18097 38057 ft 520 kts 137°
2026-05-05 08:49 26.12024 107.23750 38049 ft 520 kts 137°
2026-05-05 08:50 26.07705 107.28479 38053 ft 520 kts 137°
2026-05-05 08:50 26.02544 107.34122 38039 ft 520 kts 137°
2026-05-05 08:51 25.97427 107.39710 38039 ft 519 kts 137°
2026-05-05 08:51 25.92271 107.45335 38038 ft 520 kts 137°
2026-05-05 08:52 25.87106 107.50960 38033 ft 520 kts 137°
2026-05-05 08:52 25.81944 107.56573 38030 ft 520 kts 137°
2026-05-05 08:53 25.76777 107.62186 37997 ft 519 kts 137°
2026-05-05 08:53 25.71615 107.67788 38021 ft 519 kts 138°
2026-05-05 08:54 25.66481 107.73401 38018 ft 518 kts 137°
2026-05-05 08:54 25.61357 107.79028 38010 ft 518 kts 137°
2026-05-05 08:55 25.56228 107.84645 38010 ft 518 kts 137°
2026-05-05 08:55 25.51096 107.90254 38009 ft 519 kts 137°
2026-05-05 08:55 25.48406 107.92890 38003 ft 514 kts 148°
2026-05-05 08:56 25.45374 107.94939 38019 ft 508 kts 159°
2026-05-05 08:56 25.42102 107.96343 38003 ft 501 kts 171°
2026-05-05 08:56 25.38715 107.97082 38020 ft 493 kts 181°
2026-05-05 08:57 25.31906 107.97902 38013 ft 492 kts 180°
2026-05-05 08:57 25.25085 107.98734 38003 ft 493 kts 180°
2026-05-05 08:58 25.18277 107.99574 38008 ft 493 kts 180°
2026-05-05 08:58 25.11501 108.00411 37989 ft 492 kts 180°
2026-05-05 08:59 25.04730 108.01247 37996 ft 490 kts 180°
2026-05-05 08:59 24.97954 108.02079 37983 ft 490 kts 180°
2026-05-05 09:00 24.91179 108.02908 37985 ft 490 kts 180°
2026-05-05 09:00 24.84403 108.03736 37971 ft 490 kts 180°
2026-05-05 09:01 24.77632 108.04564 37975 ft 489 kts 180°
2026-05-05 09:01 24.70876 108.05390 37958 ft 488 kts 180°
2026-05-05 09:02 24.64129 108.06214 37951 ft 487 kts 180°
2026-05-05 09:02 24.57401 108.06874 37947 ft 481 kts 186°
2026-05-05 09:03 24.50821 108.06298 37945 ft 468 kts 198°
2026-05-05 09:03 24.44580 108.04497 37959 ft 463 kts 204°
2026-05-05 09:04 24.38393 108.02501 37972 ft 463 kts 204°
2026-05-05 09:04 24.32251 108.00526 37966 ft 463 kts 204°
2026-05-05 09:05 24.26060 107.98539 37972 ft 464 kts 204°
2026-05-05 09:05 24.19871 107.96556 37972 ft 464 kts 204°
2026-05-05 09:06 24.13671 107.94565 37981 ft 465 kts 203°
2026-05-05 09:06 24.07456 107.92583 37979 ft 465 kts 203°
2026-05-05 09:07 24.01253 107.90606 37975 ft 463 kts 203°
2026-05-05 09:07 23.95076 107.88634 37966 ft 462 kts 203°
2026-05-05 09:08 23.88892 107.86662 37975 ft 465 kts 203°
2026-05-05 09:08 23.82691 107.84694 37976 ft 463 kts 202°
2026-05-05 09:09 23.76400 107.83032 37976 ft 467 kts 199°
2026-05-05 09:09 23.70117 107.81471 37976 ft 465 kts 200°
2026-05-05 09:10 23.63812 107.79860 37966 ft 466 kts 200°
2026-05-05 09:10 23.57487 107.78226 37985 ft 467 kts 200°
2026-05-05 09:11 23.51155 107.76590 37988 ft 468 kts 200°
2026-05-05 09:11 23.44830 107.74960 37975 ft 466 kts 200°
2026-05-05 09:12 23.38528 107.73335 37973 ft 465 kts 200°
2026-05-05 09:12 23.32237 107.71716 37973 ft 464 kts 199°
2026-05-05 09:13 23.25959 107.70104 37973 ft 464 kts 199°
2026-05-05 09:13 23.19771 107.68247 37973 ft 455 kts 210°
2026-05-05 09:13 23.17058 107.66579 37964 ft 444 kts 223°
2026-05-05 09:14 23.14770 107.64388 37961 ft 436 kts 229°
2026-05-05 09:14 23.12366 107.62333 37954 ft 445 kts 217°
2026-05-05 09:14 23.09558 107.60855 37967 ft 455 kts 204°
2026-05-05 09:14 23.06444 107.60025 37978 ft 467 kts 192°
2026-05-05 09:15 23.03169 107.59898 37979 ft 476 kts 180°
2026-05-05 09:15 22.99891 107.60492 37981 ft 482 kts 167°
2026-05-05 09:15 22.96740 107.61801 37983 ft 488 kts 155°
2026-05-05 09:15 22.93861 107.63773 37981 ft 492 kts 143°
2026-05-05 09:16 22.91372 107.66335 37983 ft 496 kts 131°
2026-05-05 09:16 22.89379 107.69385 37982 ft 497 kts 119°
2026-05-05 09:16 22.87967 107.72799 37982 ft 497 kts 107°
2026-05-05 09:17 22.86389 107.80086 37977 ft 500 kts 108°
2026-05-05 09:17 22.85010 107.83548 37988 ft 501 kts 120°
2026-05-05 09:17 22.83102 107.86689 37758 ft 498 kts 128°
2026-05-05 09:17 22.80889 107.89580 37162 ft 499 kts 133°
2026-05-05 09:18 22.78530 107.92351 36275 ft 501 kts 135°
2026-05-05 09:18 22.76112 107.95088 35177 ft 511 kts 135°
2026-05-05 09:18 22.73628 107.97882 34164 ft 519 kts 135°
2026-05-05 09:18 22.71119 108.00720 33184 ft 523 kts 135°
2026-05-05 09:19 22.68607 108.03580 32295 ft 523 kts 136°
2026-05-05 09:19 22.66107 108.06434 31238 ft 524 kts 136°
2026-05-05 09:19 22.63596 108.09299 30332 ft 526 kts 136°
2026-05-05 09:19 22.61133 108.12239 29318 ft 530 kts 130°
2026-05-05 09:20 22.59127 108.15572 28537 ft 528 kts 119°
2026-05-05 09:20 22.57769 108.19234 27991 ft 519 kts 105°
2026-05-05 09:20 22.57011 108.23022 27536 ft 513 kts 102°
2026-05-05 09:20 22.56173 108.26766 26848 ft 511 kts 104°
2026-05-05 09:21 22.55270 108.30414 26242 ft 506 kts 105°
2026-05-05 09:21 22.54371 108.34072 25664 ft 500 kts 104°
2026-05-05 09:21 22.53508 108.37694 25077 ft 495 kts 104°
2026-05-05 09:21 22.52673 108.41286 24507 ft 489 kts 103°
2026-05-05 09:22 22.51860 108.44836 23869 ft 483 kts 103°
2026-05-05 09:22 22.51063 108.48338 22987 ft 476 kts 103°
2026-05-05 09:22 22.50278 108.51788 22063 ft 469 kts 103°
2026-05-05 09:22 22.49505 108.55186 21169 ft 462 kts 103°
2026-05-05 09:23 22.48742 108.58533 20296 ft 455 kts 104°
2026-05-05 09:23 22.47990 108.61828 19451 ft 448 kts 104°
2026-05-05 09:23 22.47265 108.65081 18624 ft 442 kts 101°
2026-05-05 09:23 22.47039 108.68361 17739 ft 435 kts 85°
2026-05-05 09:24 22.47565 108.71538 16826 ft 426 kts 70°
2026-05-05 09:24 22.48784 108.74416 15912 ft 417 kts 57°
2026-05-05 09:24 22.50556 108.76840 15042 ft 407 kts 40°
2026-05-05 09:24 22.52820 108.78592 14189 ft 396 kts 23°
2026-05-05 09:25 22.55383 108.79533 13317 ft 384 kts
2026-05-05 09:25 22.58007 108.79588 12402 ft 373 kts 348°
2026-05-05 09:25 22.60441 108.78767 11497 ft 363 kts 329°
2026-05-05 09:25 22.62435 108.77165 10628 ft 355 kts 310°
2026-05-05 09:26 22.63698 108.74966 10232 ft 334 kts 288°
2026-05-05 09:26 22.64047 108.72588 10035 ft 311 kts 265°
2026-05-05 09:26 22.63512 108.70418 9857 ft 291 kts 245°
2026-05-05 09:26 22.62536 108.68536 9382 ft 284 kts 239°
2026-05-05 09:27 22.61577 108.66667 8708 ft 283 kts 248°
2026-05-05 09:27 22.61027 108.64638 8120 ft 281 kts 261°
2026-05-05 09:27 22.60914 108.62538 7524 ft 279 kts 271°
2026-05-05 09:27 22.61093 108.60447 6945 ft 279 kts 277°
2026-05-05 09:28 22.61418 108.58386 6400 ft 278 kts 279°
2026-05-05 09:28 22.61799 108.56338 5833 ft 277 kts 280°
2026-05-05 09:28 22.62189 108.54308 5287 ft 275 kts 280°
2026-05-05 09:28 22.62264 108.53915 5181 ft 274 kts 280°
2026-05-05 09:30 22.62601 108.52137 4729 ft 274 kts 280°
2026-05-05 09:30 22.62973 108.50150 4593 ft 264 kts 280°
2026-05-05 09:30 22.63337 108.48182 4572 ft 269 kts 280°
2026-05-05 09:31 22.63699 108.46204 4481 ft 267 kts 280°
2026-05-05 09:31 22.64059 108.44235 4158 ft 267 kts 280°
2026-05-05 09:31 22.64419 108.42267 4038 ft 268 kts 280°
2026-05-05 09:31 22.64783 108.40289 4009 ft 267 kts 279°
2026-05-05 09:32 22.65141 108.38338 4009 ft 266 kts 279°
2026-05-05 09:32 22.65490 108.36431 4010 ft 250 kts 279°
2026-05-05 09:32 22.65819 108.34640 4006 ft 236 kts 279°
2026-05-05 09:32 22.66134 108.32910 4000 ft 232 kts 279°
2026-05-05 09:33 22.66437 108.31256 4002 ft 216 kts 279°
2026-05-05 09:33 22.66719 108.29719 3984 ft 201 kts 279°
2026-05-05 09:33 22.66954 108.28276 3725 ft 189 kts 277°
2026-05-05 09:33 22.67144 108.26928 3416 ft 173 kts 277°
2026-05-05 09:34 22.67236 108.25707 3171 ft 156 kts 262°
2026-05-05 09:34 22.66901 108.24628 2757 ft 161 kts 239°
2026-05-05 09:34 22.66176 108.23551 2440 ft 181 kts 226°
2026-05-05 09:34 22.65282 108.22704 2100 ft 164 kts 217°
2026-05-05 09:35 22.64502 108.21861 1763 ft 155 kts 228°
2026-05-05 09:35 22.63110 108.20182 1048 ft 149 kts 227°
2026-05-05 09:35 22.62422 108.19353 694 ft 146 kts 224°
2026-05-05 09:36 22.61743 108.18567 437 ft 139 kts 226°
2026-05-05 09:36 22.61159 108.17907 415 ft 95 kts 229°
2026-05-05 09:36 22.60851 108.17546 413 ft 37 kts 236°
2026-05-05 09:36 22.60770 108.17447 413 ft 25 kts 221°
2026-05-05 09:37 22.60615 108.17276 414 ft 23 kts 227°
2026-05-05 09:37 22.60540 108.17191 415 ft 23 kts 226°
2026-05-05 09:37 22.60439 108.17076 413 ft 18 kts 229°
2026-05-05 09:37 22.60377 108.16954 410 ft 17 kts 250°
2026-05-05 09:38 22.60349 108.16857 412 ft 10 kts 255°
2026-05-05 09:38 22.60348 108.16852 413 ft 0 kts 256°
2026-05-05 09:39 22.60347 108.16849 413 ft 2 kts 256°
2026-05-05 09:39 22.60342 108.16823 413 ft 5 kts 258°
2026-05-05 09:39 22.60354 108.16774 415 ft 8 kts 308°
2026-05-05 09:40 22.60408 108.16778 413 ft 9 kts 57°
2026-05-05 09:40 22.60459 108.16833 413 ft 12 kts 43°
2026-05-05 09:40 22.60524 108.16904 415 ft 15 kts 46°
2026-05-05 09:40 22.60601 108.16990 411 ft 17 kts 46°
2026-05-05 09:41 22.60689 108.17093 408 ft 20 kts 46°
2026-05-05 09:41 22.60773 108.17159 407 ft 11 kts 359°
2026-05-05 09:41 22.60838 108.17104 410 ft 14 kts 313°
2026-05-05 09:41 22.60910 108.17028 414 ft 15 kts 320°
2026-05-05 09:42 22.60978 108.16966 414 ft 13 kts 319°
2026-05-05 09:42 22.61038 108.16906 407 ft 12 kts 318°
2026-05-05 09:42 22.61103 108.16887 414 ft 6 kts 351°
2026-05-05 09:42 22.61137 108.16868 412 ft 6 kts 322°
2026-05-05 09:43 22.61149 108.16860 414 ft 0 kts 329°